Flag for Syria

Past Weather in Damascus, Syria — April 2018

Now
75 °F

Clear.


Feels Like: 77 °F
Forecast: 98 / 63 °F
Wind: 23 mph from Southwest

Location: Damascus Int. Airport

Current Time: Jul 12, 2020 at 12:01:41 am

Latest Report: Jul 11, 2020 at 11:00 pm


Visibility: 10 mi

Pressure: 29.77 "Hg (27.50 "Hg at 689m altitude)

Humidity: 65%

Dew Point: 63 °F

Location of DamascusLocation

April 2018 Weather in Damascus — Graph

°F

High & Low Weather Summary for April 2018

 TemperatureHumidityPressure
High91 °F (Apr 18, 3:00 pm)100% (Apr 26, 4:00 am)30.15 "Hg (Apr 26, 4:00 am)
Low41 °F (Apr 5, 5:00 am)7% (Apr 6, 1:00 pm)29.74 "Hg (Apr 21, 5:00 am)
Average64 °F43%29.93 "Hg
* Reported Apr 1 12:00 am — Apr 30 11:00 pm, Damascus. Weather by CustomWeather, © 2020

Note: Actual official high and low records may vary slightly from our data, if they occured in-between our weather recording intervals... More about our weather records

Damascus Weather History for April 1, 2018

Scroll right to see more
 ConditionsComfort  
Time TempWeatherWind HumidityBarometerVisibility
12:00 am
Sun, Apr 1
48 °FClear.2 mph58%30.12 "Hg10 mi
1:00 am48 °FClear.7 mph58%30.12 "Hg10 mi
2:00 am48 °FClear.5 mph54%30.09 "Hg10 mi
4:00 am45 °FClear.7 mph71%30.07 "Hg10 mi
5:00 am43 °FClear.No wind76%30.07 "Hg10 mi
6:00 am46 °FClear.No wind66%30.07 "Hg10 mi
7:00 am43 °FSunny.No wind76%30.09 "Hg10 mi
8:00 am48 °FSunny.No wind66%30.09 "Hg10 mi
9:00 am55 °FSunny.5 mph55%30.09 "Hg10 mi
10:00 am63 °FPartly sunny.7 mph37%30.09 "HgN/A
11:00 am64 °FPartly sunny.5 mph32%30.09 "HgN/A
12:00 pm70 °FScattered clouds.5 mph29%30.07 "HgN/A
1:00 pm72 °FScattered clouds.7 mph25%30.04 "HgN/A
2:00 pm73 °FScattered clouds.7 mph22%30.04 "HgN/A
3:00 pm75 °FSunny.5 mph19%30.01 "Hg10 mi
4:00 pm75 °FSunny.9 mph16%29.98 "Hg10 mi
5:00 pm75 °FSunny.2 mph15%29.98 "Hg10 mi
6:00 pm75 °FSunny.7 mph15%29.98 "Hg10 mi
7:00 pm72 °FClear.5 mphN/A29.95 "Hg10 mi
8:00 pm66 °FClear.5 mph22%29.95 "Hg10 mi
9:00 pm61 °FClear.2 mph31%29.98 "Hg10 mi
10:00 pm57 °FClear.2 mph36%29.98 "Hg10 mi
11:00 pm54 °FClear.5 mph33%29.98 "Hg10 mi
Weather by CustomWeather, © 2020

See weather overview